When you browse on this site, cookies collect data to enhance your experience and personalize the content and advertising you see.
Visit our Privacy Policy to learn more. By continuing to use the site, you agree to this use of cookies and data.

Hourly Weather Kresino

Today, 9 July, Thursday

Time Temperature Precipitation Wind Pressure Humidity
00:00 +12°C° 0.1 mm 2 mps 743 mmHg 97%
01:00 +12°C° 0.1 mm 2 mps 743 mmHg 97%
02:00 +12°C° 0.1 mm 2 mps 743 mmHg 97%
03:00 +12°C° 0 mm 2 mps 743 mmHg 96%
04:00 +12°C° 0 mm 2 mps 743 mmHg 95%
05:00 +12°C° 0 mm 2 mps 743 mmHg 94%
06:00 +14°C° 0 mm 2 mps 743 mmHg 87%
07:00 +16°C° 0 mm 2 mps 743 mmHg 80%
08:00 +18°C° 0 mm 1 mps 743 mmHg 73%
09:00 +18°C° 0.5 mm 2 mps 744 mmHg 71%
10:00 +19°C° 0.5 mm 2 mps 744 mmHg 69%
11:00 +19°C° 0.5 mm 2 mps 744 mmHg 68%
12:00 +19°C° 0.4 mm 2 mps 744 mmHg 67%
13:00 +20°C° 0.4 mm 3 mps 744 mmHg 66%
14:00 +20°C° 0.4 mm 3 mps 745 mmHg 65%
15:00 +19°C° 0.7 mm 3 mps 745 mmHg 71%
16:00 +18°C° 0.7 mm 3 mps 745 mmHg 78%
17:00 +18°C° 0.7 mm 3 mps 745 mmHg 84%
18:00 +17°C° 0.2 mm 2 mps 745 mmHg 87%
19:00 +15°C° 0.2 mm 2 mps 745 mmHg 90%
20:00 +14°C° 0.2 mm 1 mps 745 mmHg 93%
21:00 +13°C° 0 mm 2 mps 746 mmHg 93%
22:00 +12°C° 0 mm 2 mps 746 mmHg 94%
23:00 +10°C° 0 mm 2 mps 747 mmHg 94%

Tomorrow, 10 July, Friday

Time Temperature Precipitation Wind Pressure Humidity
00:00 +10°C° 0 mm 2 mps 747 mmHg 94%
01:00 +9°C° 0 mm 2 mps 747 mmHg 94%
02:00 +9°C° 0 mm 2 mps 747 mmHg 94%
03:00 +9°C° 0 mm 2 mps 748 mmHg 93%
04:00 +10°C° 0 mm 2 mps 748 mmHg 92%
05:00 +10°C° 0 mm 2 mps 748 mmHg 92%
06:00 +13°C° 0 mm 2 mps 748 mmHg 84%
07:00 +15°C° 0 mm 2 mps 748 mmHg 75%
08:00 +18°C° 0 mm 2 mps 749 mmHg 67%
09:00 +19°C° 0 mm 2 mps 749 mmHg 61%
10:00 +20°C° 0 mm 3 mps 749 mmHg 55%
11:00 +21°C° 0 mm 3 mps 749 mmHg 49%
12:00 +22°C° 0 mm 3 mps 749 mmHg 50%
13:00 +22°C° 0 mm 4 mps 748 mmHg 50%
14:00 +22°C° 0 mm 4 mps 748 mmHg 50%
15:00 +21°C° 0 mm 4 mps 748 mmHg 55%
16:00 +21°C° 0 mm 3 mps 748 mmHg 60%
17:00 +20°C° 0 mm 3 mps 748 mmHg 65%
18:00 +19°C° 0.1 mm 3 mps 748 mmHg 70%
19:00 +18°C° 0.1 mm 3 mps 748 mmHg 75%
20:00 +17°C° 0.1 mm 3 mps 748 mmHg 80%
21:00 +17°C° 0.1 mm 3 mps 748 mmHg 82%
22:00 +17°C° 0.1 mm 3 mps 747 mmHg 84%
23:00 +15°C° 0.1 mm 4 mps 747 mmHg 86%

Day after tomorrow, 11 July, Saturday

Time Temperature Precipitation Wind Pressure Humidity
00:00 +15°C° 0.1 mm 4 mps 747 mmHg 88%
01:00 +15°C° 0.1 mm 4 mps 747 mmHg 91%
02:00 +15°C° 0.1 mm 4 mps 747 mmHg 93%
03:00 +17°C° 0 mm 4 mps 747 mmHg 93%
04:00 +17°C° 0 mm 4 mps 747 mmHg 93%
05:00 +17°C° 0 mm 4 mps 747 mmHg 93%
06:00 +18°C° 0 mm 4 mps 747 mmHg 90%
07:00 +19°C° 0 mm 4 mps 747 mmHg 87%
08:00 +20°C° 0 mm 4 mps 747 mmHg 83%
09:00 +21°C° 0 mm 4 mps 747 mmHg 78%
10:00 +23°C° 0 mm 4 mps 748 mmHg 74%
11:00 +25°C° 0 mm 4 mps 748 mmHg 69%
12:00 +25°C° 0.2 mm 4 mps 747 mmHg 71%
13:00 +25°C° 0.2 mm 4 mps 747 mmHg 73%
14:00 +25°C° 0.2 mm 4 mps 747 mmHg 75%
15:00 +25°C° 0.6 mm 4 mps 747 mmHg 80%
16:00 +25°C° 0.6 mm 4 mps 747 mmHg 85%
17:00 +25°C° 0.6 mm 3 mps 747 mmHg 89%
18:00 +24°C° 0.9 mm 3 mps 747 mmHg 91%
19:00 +23°C° 0.9 mm 2 mps 747 mmHg 93%
20:00 +21°C° 0.9 mm 2 mps 747 mmHg 94%
21:00 +20°C° 0.5 mm 2 mps 747 mmHg 95%
22:00 +20°C° 0.5 mm 2 mps 747 mmHg 96%
23:00 +19°C° 0.5 mm 2 mps 748 mmHg 97%

12 July, Sunday

Time Temperature Precipitation Wind Pressure Humidity
00:00 +19°C° 0 mm 2 mps 748 mmHg 98%
01:00 +18°C° 0 mm 2 mps 748 mmHg 98%
02:00 +18°C° 0 mm 2 mps 748 mmHg 98%
03:00 +17°C° 0.1 mm 2 mps 748 mmHg 98%
04:00 +18°C° 0.1 mm 1 mps 748 mmHg 97%
05:00 +18°C° 0.1 mm 1 mps 748 mmHg 97%
06:00 +19°C° 0.1 mm 1 mps 749 mmHg 93%
07:00 +20°C° 0.1 mm 1 mps 749 mmHg 90%
08:00 +21°C° 0.1 mm 1 mps 749 mmHg 86%
09:00 +21°C° 0 mm 1 mps 749 mmHg 82%
10:00 +22°C° 0 mm 1 mps 749 mmHg 78%
11:00 +23°C° 0 mm 1 mps 749 mmHg 74%
12:00 +22°C° 0.4 mm 1 mps 749 mmHg 79%
13:00 +21°C° 0.4 mm 1 mps 749 mmHg 84%
14:00 +20°C° 0.4 mm 1 mps 749 mmHg 89%
15:00 +21°C° 0 mm 1 mps 749 mmHg 87%
16:00 +20°C° 0 mm 2 mps 748 mmHg 85%
17:00 +20°C° 0 mm 2 mps 748 mmHg 83%
18:00 +19°C° 0 mm 2 mps 748 mmHg 83%
19:00 +19°C° 0 mm 2 mps 748 mmHg 84%
20:00 +18°C° 0 mm 2 mps 748 mmHg 84%
21:00 +18°C° 0.1 mm 2 mps 747 mmHg 85%
22:00 +17°C° 0.1 mm 2 mps 747 mmHg 86%
23:00 +17°C° 0.1 mm 2 mps 747 mmHg 87%

13 July, Monday

Time Temperature Precipitation Wind Pressure Humidity
00:00 +16°C° 0.7 mm 2 mps 747 mmHg 91%
01:00 +16°C° 0.7 mm 2 mps 746 mmHg 94%
02:00 +15°C° 0.7 mm 2 mps 746 mmHg 97%
03:00 +16°C° 0.2 mm 2 mps 745 mmHg 98%
04:00 +17°C° 0.2 mm 2 mps 745 mmHg 98%
05:00 +18°C° 0.2 mm 2 mps 744 mmHg 98%
06:00 +19°C° 0 mm 2 mps 744 mmHg 96%
07:00 +20°C° 0 mm 2 mps 744 mmHg 93%
08:00 +22°C° 0 mm 1 mps 744 mmHg 91%
09:00 +22°C° 0.4 mm 1 mps 743 mmHg 90%
10:00 +23°C° 0.4 mm 1 mps 743 mmHg 90%
11:00 +23°C° 0.4 mm 1 mps 742 mmHg 90%
12:00 +23°C° 1.4 mm 1 mps 742 mmHg 91%
13:00 +21°C° 1.4 mm 2 mps 741 mmHg 93%
14:00 +21°C° 1.4 mm 2 mps 741 mmHg 94%
15:00 +21°C° 0.6 mm 2 mps 740 mmHg 93%
16:00 +22°C° 0.6 mm 1 mps 740 mmHg 92%
17:00 +23°C° 0.6 mm 1 mps 740 mmHg 91%
18:00 +22°C° 1.5 mm 1 mps 739 mmHg 92%
19:00 +21°C° 1.5 mm 1 mps 739 mmHg 94%
20:00 +21°C° 1.5 mm 1 mps 739 mmHg 95%
21:00 +20°C° 0.6 mm 1 mps 739 mmHg 96%
22:00 +20°C° 0.6 mm 1 mps 738 mmHg 97%
23:00 +19°C° 0.6 mm 1 mps 738 mmHg 98%

14 July, Tuesday

Time Temperature Precipitation Wind Pressure Humidity
00:00 +19°C° 0.8 mm 1 mps 738 mmHg 98%
01:00 +18°C° 0.8 mm 2 mps 738 mmHg 98%
02:00 +18°C° 0.8 mm 2 mps 738 mmHg 99%
03:00 +18°C° 0.8 mm 2 mps 738 mmHg 98%
04:00 +18°C° 0.8 mm 2 mps 738 mmHg 98%
05:00 +18°C° 0.8 mm 3 mps 738 mmHg 98%
06:00 +18°C° 0.3 mm 3 mps 738 mmHg 97%
07:00 +18°C° 0.3 mm 3 mps 738 mmHg 97%
08:00 +18°C° 0.3 mm 3 mps 738 mmHg 96%
09:00 +18°C° 0.4 mm 3 mps 738 mmHg 94%
10:00 +18°C° 0.4 mm 3 mps 738 mmHg 92%
11:00 +18°C° 0.4 mm 3 mps 738 mmHg 91%
12:00 +18°C° 0.4 mm 3 mps 738 mmHg 91%
13:00 +18°C° 0.4 mm 3 mps 738 mmHg 92%
14:00 +18°C° 0.4 mm 3 mps 738 mmHg 93%
15:00 +18°C° 0.5 mm 3 mps 739 mmHg 94%
16:00 +17°C° 0.5 mm 3 mps 739 mmHg 95%
17:00 +17°C° 0.5 mm 3 mps 739 mmHg 97%
18:00 +17°C° 0.8 mm 2 mps 739 mmHg 97%
19:00 +16°C° 0.8 mm 2 mps 739 mmHg 98%
20:00 +16°C° 0.8 mm 2 mps 739 mmHg 98%
21:00 +16°C° 1.5 mm 2 mps 739 mmHg 98%
22:00 +16°C° 1.5 mm 3 mps 739 mmHg 98%
23:00 +16°C° 1.5 mm 3 mps 739 mmHg 98%
Show more